Location: Augsburg
(48.3836°N, 10.8929°E)
Time: 14:11:52
(UTC+02:00)

ISS - Pass Details

Date: 08 January 2018
Orbit: 402 x 409 km, 51.6° (Epoch: 21 August)

Event Time Altitude Azimuth Distance (km) Brightness Sun altitude
Exits shadow 05:12:41 19° 65° (ENE) 1,087 -1.1 -28.0°
Drops below altitude 10° 05:13:49 10° 73° (ENE) 1,514 -0.1 -27.8°
Sets 05:15:59 0° 80° (E) 2,383 1.3 -27.4°
